Showing default

TECHNOSAT, 42829

Orbit data source: Space-Track

TECHNOSAT, 42829 is a payload satellite owned by TUB (DE) in SSO that was launched on Fri, 14 Jul 2017 UTC via a SOYUZ-2-1A launch vehicle from the Tyuratam Missile And Space Complex (TTMTR). Payload-class satellites include a variety of spacecraft equipped with specific instruments for various scientific and technological missions. These include communications satellites like Starlink; space stations such as the ISS; scientific satellites like the Hubble; Earth observation satellites from companies like Planet Labs, Umbra, and HawkEye 360; GPS; miniature CubeSats for education and research; and military/defense satellites.

Loading next visibility...
Identifier
42829, 2017-042E
Orbit
SSO
Country
Flag of DEDE / GER
Related business
Manufacturer
TUB
Mission
Operational Amateur Technology
Bus & Motor
TUBIX20, Unknown motor
Mass
18 kg wet, 18 kg dry
Launch date (UTC)
2017-07-14 (9 years ago)
Launch vehicle
SOYUZ-2-1A
Launch site
Tyuratam Missile And Space Complex (TTMTR)
Object type
Payload
Rocket body
Debris
Shape & HBR
Oct Cyl, 1.0 m
Radar Cross Section
0.175 m², Medium (>0.1 m² and < 1m²)

Expand to show TLE details & history
Last TLE update: 7 hours ago

TLE from 7 hours ago
0 TECHNOSAT
1 42829U 17042E   26264.24379464  .00002687  00000-0  19069-3 0  9999
2 42829  97.4408  58.3532 0018570 123.8136 236.4862 15.05431844501158
Epoch: 2026-09-21T05:51Z
TLE epoch observation values (Epoch: 2026-09-21T05:51:03.856Z)
Latitude
-0.00008°
Longitude
-29.53927°
Altitude
560.372 km
Speed
7.577 km/s
True Right ascension
03h 53m 24s
True Declination
0° 00' 00"
Sunlit
Object was in full shadow at epoch
Visualization orbit readout
Latitude
Unknown
Longitude
Unknown
Altitude
Unknown
Speed
Unknown
Apparent Right ascension
Unknown
Apparent Declination
Unknown
Sunlit
N/A
Visualization observer readout
Local Sidereal Time
06:00:09
Azimuth
Unknown
Elevation
Unknown
Doppler factor
Unknown
Orbital elements
Apogee altitude
560.027 km
Perigee altitude
534.307 km
Semi-major axis
6,925.304 km
Eccentricity
0.00186
Inclination
97.4408°
RAAN
58.3532°
Arg. of periapsis
123.8136°
True anomaly
236.30901°
Mean anomaly
236.4862°
Eccentric anomaly
236.39758°
Mean motion
3.76604 °/min
Orbital period
95.59 mins
BSTAR
0.00019069
Loading maneuver chart data...
Computing Atmospheric mass density...

Documentation

Showing up to 5 results
|